[[{"header":{"parameterUnit":"m.s-1","parameterCategory":1,"la1":30.2991,"la2":30.254,"lo1":-89.0895,"lo2":-89.0444,"dy":0.0017,"dx":0.0017,"nx":28,"ny":28,"refTime":"2023-08-03T09:00:00:Z","depth":0,"parameterNumber":2,"parameterNumberName":"U-component_of_WINDS"},"data":[0,0,0,0,0,0,0,0,0,0,0,0,0,0,0,0,0,0,0,0,0,0,0,0,0,0,0,0,0,0,0,0,0,0,0,0,0,0,0,0,0,0,0,0,0,0,0,0,0,0,0,0,0,0,0,0,0,0,4.3168,4.3169,0,4.3222,4.3223,4.3223,4.3204,4.3203,4.3201,4.32,4.3255,4.3257,4.326,0,0,0,0,0,0,0,0,0,0,0,0,0,4.305,4.3052,4.3168,4.3169,4.3169,4.3222,4.3223,4.3223,4.3204,4.3203,4.3201,4.32,4.3254,4.3257,4.326,0,0,0,0,0,0,0,0,0,0,0,0,0,4.3102,4.3053,4.3168,4.3166,4.3167,4.3222,4.3223,4.3223,4.3204,4.3203,4.3201,4.3199,4.3253,4.3257,4.326,4.332,0,0,4.3272,4.3274,0,0,0,0,0,0,0,0,4.3099,4.3107,4.3166,4.3166,4.3167,4.3204,4.3201,4.3256,4.3205,4.319,4.32,4.3198,4.3239,4.3244,4.3258,4.3323,4.3325,4.3272,4.3275,4.3276,4.3278,0,0,0,0,0,0,0,4.3096,4.3104,4.3189,4.3167,4.3167,4.3163,4.3169,4.3211,4.3224,4.3191,4.319,4.3197,4.3239,4.3255,4.3259,4.3326,4.3272,4.3276,4.3278,4.328,4.3445,4.3447,0,0,0,0,0,0,4.3092,4.3101,4.3188,4.3191,4.3128,4.3167,4.3173,4.3194,4.3224,4.3226,4.3198,4.3195,4.3249,4.3255,4.3261,4.3334,4.3276,4.328,4.3282,4.3443,4.3445,4.3447,0,0,0,0,0,0,4.3089,4.31,4.3185,4.3146,4.3156,4.3171,4.3195,4.3196,4.3211,4.3229,4.3231,4.3211,4.3248,4.3256,4.3306,4.3336,4.3282,4.3285,4.344,4.3443,4.3446,4.3481,0,0,0,0,0,0,4.3086,4.3099,4.3121,4.3147,4.3159,4.3229,4.3197,4.3199,4.3218,4.3215,4.3242,4.3244,4.3247,4.3301,4.331,4.334,4.3288,4.3438,4.3442,4.3445,4.3477,4.3485,4.3491,0,0,0,0,0,4.3082,4.3128,4.3123,4.3133,4.3187,4.3231,4.3238,4.324,4.3221,4.3244,4.3255,4.3243,4.3331,4.3306,4.3316,4.3348,4.3436,4.3441,4.3445,4.3474,4.3483,4.3491,0,0,0,0,0,0,4.3105,4.3131,4.3125,4.3181,4.3204,4.3228,4.3256,4.325,4.3278,4.3274,4.3276,4.3282,4.3334,4.3346,4.3318,4.3409,4.3381,4.3388,4.3399,4.3408,4.3415,4.3411,4.3292,0,0,0,0,0,4.3117,4.315,4.3172,4.3219,4.3231,4.3242,4.3261,4.3261,4.3285,4.3294,4.3309,4.3333,4.3366,4.3388,4.3419,4.3479,4.3485,4.3506,4.3513,4.3519,4.3525,4.3559,4.3569,4.3463,4.3463,4.3463,0,0,4.3141,4.316,4.3181,4.3224,4.3242,4.3277,4.325,4.3288,4.3314,4.33,4.3349,4.3361,4.3388,4.3444,4.3469,4.3455,4.3556,4.3525,4.353,4.3532,4.3565,4.3575,4.3584,4.3466,4.3465,4.3465,0,0,4.3203,4.3221,4.3263,4.3282,4.3309,4.3317,4.3327,4.3353,4.3361,4.341,4.3401,4.3432,4.3489,4.3509,4.3526,4.3599,4.359,4.361,4.3646,4.368,4.3688,4.3696,4.3723,4.3732,4.3615,4.3616,4.3616,0,4.323,4.3282,4.3285,4.3325,4.3345,4.3335,4.3378,4.3396,4.3432,4.3447,4.3431,4.3504,4.3521,4.3582,4.36,4.3614,4.3627,4.3606,4.3687,4.3694,4.3701,4.3727,4.3737,4.3618,4.3618,4.3617,4.3617,0,4.3314,4.3351,4.3382,4.3419,4.3442,4.3483,4.3493,4.3517,4.3515,4.3525,4.3576,4.3597,4.3633,4.3648,4.3646,4.371,4.3701,4.3686,4.3657,4.3714,4.3738,4.3748,4.3621,4.362,4.362,4.3619,0,0,4.3391,4.343,4.3442,4.3459,4.349,4.3519,4.3561,4.3597,4.3618,4.3644,4.3679,4.3729,4.3716,4.3736,4.3737,4.3767,4.3825,4.3749,4.3749,4.3763,4.3898,4.3908,4.3919,4.3819,4.3821,4.3823,4.3895,0,4.3456,4.3529,4.3534,4.36,4.3635,4.3627,4.3664,4.3687,4.3698,4.373,4.3741,4.3777,4.3757,4.3769,4.3798,4.3812,4.3852,4.3807,4.3853,4.3854,4.3846,4.3932,4.3943,4.401,4.3905,4.3906,4.3908,0,4.3542,4.3572,4.3642,4.367,4.3685,4.3717,4.3752,4.3782,4.381,4.3815,4.3839,4.3837,4.3881,4.3851,4.3912,4.3881,4.3901,4.3911,4.3913,4.3917,4.3884,4.3939,4.4032,4.4042,4.3922,4.3921,4.392,0,4.3591,4.3649,4.3699,4.3714,4.3748,4.3772,4.3787,4.3813,4.3835,4.3865,4.388,4.3915,4.3934,4.3962,4.397,4.3947,4.4031,4.4002,4.4037,4.4037,4.4054,4.4053,4.4152,4.4067,4.4067,4.4067,4.4067,0,4.3664,4.3707,4.3722,4.3753,4.3802,4.3808,4.3856,4.387,4.3893,4.3927,4.3923,4.3954,4.3963,4.3996,4.4003,4.4053,4.4061,4.4068,4.4069,4.4068,4.4067,4.4081,4.4076,4.4069,4.4069,4.4068,4.4068,0,4.3727,4.3739,4.3793,4.3822,4.383,4.3865,4.389,4.392,4.3931,4.3974,4.3984,4.4001,4.4041,4.4052,4.4099,4.4103,4.4163,4.4159,4.4153,4.4153,4.4188,4.4185,4.4299,4.4315,4.422,4.422,4.4221,0,4.3772,4.3806,4.3839,4.3861,4.3878,4.3914,4.3937,4.3945,4.3969,4.4004,4.4031,4.407,4.4102,4.4166,4.4183,4.4219,4.4217,4.4255,4.4222,4.4221,4.4218,4.4216,4.422,4.426,4.4261,4.4262,4.4263,0,4.3852,4.3857,4.389,4.3927,4.3955,4.3984,4.4011,4.403,4.4042,4.407,4.4111,4.4136,4.4185,4.4224,4.4262,4.4278,4.4273,4.4273,4.4283,4.4283,4.4278,4.4282,4.417,4.427,4.4269,4.4269,4.4269,4.4268,4.3908,4.3938,4.3966,4.4004,4.4026,4.4053,4.4083,4.4099,4.4133,4.4174,4.4177,4.4222,4.425,4.43,4.4319,4.4354,4.4343,4.4358,4.4361,4.4365,4.4368,4.4273,4.4361,4.4361,4.4361,4.4361,4.436,0,4.3988,4.4006,4.4041,4.4081,4.4111,4.4105,4.4136,4.4161,4.4201,4.4228,4.426,4.4308,4.4347,4.4368,4.4407,4.4432,4.4431,4.4442,4.444,4.4444,4.4376,4.4363,4.4442,4.4442,4.4442,4.4442,4.4442,4.4442,4.4033,4.4083,4.4092,4.4155,4.4173,4.4217,4.4235,4.426,4.4282,4.4336,4.4369,4.4383,4.4408,4.4449,4.4485,4.449,4.4505,4.4517,4.4521,4.4457,4.4449,4.4441,4.4429,4.452,4.4521,4.4587,4.4587,4.4588]},{"header":{"parameterUnit":"m.s-1","parameterCategory":1,"la1":30.2991,"la2":30.254,"lo1":-89.0895,"lo2":-89.0444,"dy":0.0017,"dx":0.0017,"nx":28,"ny":28,"refTime":"2023-08-03T09:00:00:Z","depth":0,"parameterNumber":3,"parameterNumberName":"V-component_of_WINDS"},"data":[0,0,0,0,0,0,0,0,0,0,0,0,0,0,0,0,0,0,0,0,0,0,0,0,0,0,0,0,0,0,0,0,0,0,0,0,0,0,0,0,0,0,0,0,0,0,0,0,0,0,0,0,0,0,0,0,0,0,-1.3374,-1.3374,0,-1.3422,-1.3423,-1.3424,-1.3432,-1.3432,-1.3431,-1.3431,-1.3481,-1.3483,-1.3485,0,0,0,0,0,0,0,0,0,0,0,0,0,-1.3289,-1.329,-1.3373,-1.3374,-1.3375,-1.3422,-1.3423,-1.3424,-1.3432,-1.3432,-1.3431,-1.3431,-1.3481,-1.3483,-1.3485,0,0,0,0,0,0,0,0,0,0,0,0,0,-1.333,-1.3291,-1.3373,-1.3385,-1.3386,-1.3422,-1.3423,-1.3424,-1.3432,-1.3432,-1.3431,-1.343,-1.348,-1.3482,-1.3485,-1.3513,0,0,-1.3493,-1.3494,0,0,0,0,0,0,0,0,-1.3328,-1.3334,-1.3382,-1.3384,-1.3386,-1.3421,-1.3412,-1.3454,-1.3432,-1.3415,-1.3431,-1.343,-1.3461,-1.3466,-1.3476,-1.3516,-1.3518,-1.3493,-1.3495,-1.3496,-1.3496,0,0,0,0,0,0,0,-1.3325,-1.3332,-1.3393,-1.3383,-1.3385,-1.3388,-1.3393,-1.342,-1.3441,-1.3416,-1.3417,-1.3423,-1.3462,-1.3474,-1.3477,-1.3518,-1.3493,-1.3495,-1.3497,-1.3498,-1.3586,-1.3586,0,0,0,0,0,0,-1.332,-1.3329,-1.3391,-1.3394,-1.3355,-1.339,-1.3396,-1.341,-1.3441,-1.3445,-1.3423,-1.3423,-1.3469,-1.3474,-1.3479,-1.3516,-1.3496,-1.3498,-1.35,-1.3585,-1.3586,-1.3587,0,0,0,0,0,0,-1.3318,-1.3326,-1.3389,-1.3362,-1.337,-1.3392,-1.3408,-1.3411,-1.3423,-1.3446,-1.345,-1.3431,-1.3469,-1.3475,-1.3505,-1.3517,-1.3499,-1.3502,-1.3584,-1.3585,-1.3586,-1.3588,0,0,0,0,0,0,-1.3316,-1.3325,-1.3335,-1.3362,-1.3372,-1.3414,-1.3409,-1.3413,-1.3427,-1.3427,-1.3454,-1.3458,-1.3469,-1.3501,-1.3508,-1.3521,-1.3504,-1.3583,-1.3584,-1.3586,-1.3587,-1.3589,-1.3591,0,0,0,0,0,-1.3313,-1.3333,-1.3336,-1.3343,-1.3385,-1.3415,-1.342,-1.3433,-1.3428,-1.3439,-1.3454,-1.3457,-1.3515,-1.3504,-1.3511,-1.3525,-1.3582,-1.3584,-1.3586,-1.3586,-1.3588,-1.3591,0,0,0,0,0,0,-1.3307,-1.3337,-1.334,-1.337,-1.339,-1.3416,-1.343,-1.3435,-1.3456,-1.3456,-1.347,-1.3476,-1.3505,-1.3518,-1.3506,-1.3555,-1.3548,-1.3552,-1.3546,-1.3549,-1.355,-1.3547,-1.3506,0,0,0,0,0,-1.3309,-1.3331,-1.3356,-1.338,-1.339,-1.3408,-1.3422,-1.343,-1.3451,-1.3459,-1.3477,-1.3497,-1.352,-1.3535,-1.3557,-1.3589,-1.3595,-1.3602,-1.3604,-1.3605,-1.3608,-1.3628,-1.3631,-1.3592,-1.3592,-1.3592,0,0,-1.3314,-1.3333,-1.3346,-1.3379,-1.3395,-1.3418,-1.3415,-1.3438,-1.3455,-1.3463,-1.3492,-1.3506,-1.353,-1.3561,-1.3575,-1.3572,-1.3621,-1.3608,-1.3609,-1.3611,-1.363,-1.3633,-1.3637,-1.3594,-1.3593,-1.3593,0,0,-1.3335,-1.3351,-1.3373,-1.339,-1.3415,-1.3428,-1.3433,-1.3459,-1.3469,-1.3498,-1.3505,-1.3525,-1.3564,-1.3582,-1.3596,-1.3625,-1.3629,-1.3632,-1.3642,-1.3661,-1.3664,-1.3667,-1.3678,-1.3682,-1.3634,-1.3634,-1.3634,0,-1.3338,-1.3371,-1.3384,-1.3408,-1.3423,-1.3431,-1.3455,-1.347,-1.3501,-1.3512,-1.3508,-1.3558,-1.3575,-1.3611,-1.3618,-1.3629,-1.3637,-1.3629,-1.3662,-1.3665,-1.3668,-1.3679,-1.3683,-1.3635,-1.3635,-1.3635,-1.3634,0,-1.3374,-1.3398,-1.3413,-1.3443,-1.346,-1.3483,-1.3501,-1.3516,-1.3523,-1.3537,-1.3568,-1.3588,-1.3616,-1.3625,-1.3631,-1.3662,-1.366,-1.3659,-1.3652,-1.3672,-1.3683,-1.3687,-1.3635,-1.3635,-1.3635,-1.3635,0,0,-1.3392,-1.343,-1.3436,-1.345,-1.3479,-1.3498,-1.3522,-1.3549,-1.3563,-1.3584,-1.3606,-1.364,-1.3639,-1.3655,-1.3664,-1.3681,-1.3704,-1.3678,-1.3679,-1.3683,-1.3741,-1.3742,-1.3747,-1.3707,-1.3708,-1.3708,-1.374,0,-1.3416,-1.346,-1.3473,-1.351,-1.3533,-1.3542,-1.3563,-1.3584,-1.3597,-1.3619,-1.3633,-1.3658,-1.3655,-1.3665,-1.3681,-1.3698,-1.3716,-1.3696,-1.3728,-1.3729,-1.3722,-1.3753,-1.3754,-1.3782,-1.3744,-1.3745,-1.3745,0,-1.3451,-1.3474,-1.3513,-1.3541,-1.355,-1.3569,-1.3596,-1.3616,-1.3641,-1.3649,-1.3668,-1.3676,-1.3703,-1.3695,-1.3733,-1.3718,-1.3733,-1.3743,-1.3744,-1.3748,-1.3739,-1.3758,-1.3791,-1.3796,-1.3752,-1.3751,-1.3751,0,-1.3461,-1.3502,-1.3531,-1.3543,-1.3575,-1.3589,-1.3603,-1.3627,-1.3643,-1.3666,-1.3677,-1.3703,-1.3718,-1.3739,-1.3754,-1.3746,-1.3791,-1.3784,-1.38,-1.38,-1.381,-1.3809,-1.3846,-1.3817,-1.3817,-1.3817,-1.3817,0,-1.3488,-1.3512,-1.3536,-1.3554,-1.3582,-1.3597,-1.3624,-1.3639,-1.366,-1.3682,-1.3691,-1.3711,-1.373,-1.3753,-1.3765,-1.3796,-1.3802,-1.3811,-1.3814,-1.381,-1.3809,-1.382,-1.3819,-1.3818,-1.3818,-1.3818,-1.3818,0,-1.3504,-1.3521,-1.3554,-1.3583,-1.359,-1.361,-1.3635,-1.3653,-1.3667,-1.3695,-1.3702,-1.3724,-1.3752,-1.377,-1.3805,-1.3813,-1.3847,-1.3849,-1.3839,-1.3841,-1.3856,-1.3855,-1.3903,-1.391,-1.3875,-1.3876,-1.3876,0,-1.352,-1.3539,-1.357,-1.3585,-1.36,-1.3624,-1.3641,-1.3657,-1.3675,-1.3704,-1.372,-1.3748,-1.3772,-1.3816,-1.3836,-1.3863,-1.3867,-1.3881,-1.3871,-1.3867,-1.3868,-1.3867,-1.387,-1.3883,-1.3883,-1.3884,-1.3884,0,-1.3548,-1.3556,-1.3579,-1.3607,-1.3626,-1.3649,-1.3671,-1.3683,-1.3703,-1.3722,-1.3751,-1.3769,-1.3806,-1.3835,-1.3864,-1.388,-1.3886,-1.3887,-1.3893,-1.389,-1.3884,-1.3888,-1.3845,-1.3886,-1.3886,-1.3886,-1.3886,-1.3885,-1.3565,-1.3583,-1.3608,-1.3635,-1.3653,-1.3674,-1.3693,-1.371,-1.3735,-1.3766,-1.3774,-1.3805,-1.383,-1.387,-1.3886,-1.3911,-1.3909,-1.3917,-1.3919,-1.3921,-1.3922,-1.3879,-1.3916,-1.3916,-1.3916,-1.3916,-1.3916,0,-1.3594,-1.3611,-1.3635,-1.3667,-1.3688,-1.3692,-1.3717,-1.3735,-1.3761,-1.3784,-1.3808,-1.3842,-1.387,-1.3893,-1.3922,-1.3938,-1.3941,-1.3945,-1.3944,-1.3948,-1.3921,-1.3914,-1.3942,-1.3942,-1.3942,-1.3942,-1.3942,-1.3942,-1.3612,-1.3643,-1.3654,-1.3694,-1.3711,-1.3741,-1.3756,-1.3775,-1.3794,-1.3832,-1.3855,-1.387,-1.3893,-1.3925,-1.3951,-1.3957,-1.3968,-1.3971,-1.3978,-1.3952,-1.395,-1.3947,-1.3941,-1.3973,-1.3973,-1.4003,-1.4004,-1.4004]}]]